FW0960 Weather Reports


time (UTC)temp
C
wind
direction
speed
KPH
gust
KPH
rain 1hr
cm
rain 24hr
cm
rain mn
cm
humidity
%
barometer
mb
20260509171346 18 5 1.6 3.2 0.00 0.00 0.00 81 1012.2
20260509170847 18 20 1.6 3.2 0.00 0.00 0.00 81 1012.1
20260509165843 18 111 1.6 4.8 0.00 0.00 0.00 79 1012.4
20260509165338 19 64 0.0 3.2 0.00 0.00 0.00 80 1012.3
20260509164842 19 74 0.0 3.2 0.00 0.00 0.00 78 1012.4
20260509164340 19 82 0.0 0.0 0.00 0.00 0.00 77 1012.5
20260509163842 20 82 0.0 0.0 0.00 0.00 0.00 77 1012.5
20260509163340 20 82 0.0 0.0 0.00 0.00 0.00 76 1012.5
20260509162842 20 82 0.0 0.0 0.00 0.00 0.00 75 1012.2
20260509161836 21 82 0.0 1.6 0.00 0.00 0.00 74 1012.2
20260509161337 21 82 0.0 1.6 0.00 0.00 0.00 72 1012.2
20260509160838 21 82 0.0 1.6 0.00 0.00 0.00 71 1012.2
20260509160336 21 83 0.0 1.6 0.00 0.00 0.00 73 1012.3
20260509155833 21 86 0.0 1.6 0.00 0.00 0.00 73 1012.5
20260509155335 21 88 0.0 1.6 0.00 0.00 0.00 71 1012.7
20260509154835 21 98 0.0 1.6 0.00 0.00 0.00 70 1012.9
20260509154330 21 98 0.0 1.6 0.00 0.00 0.00 68 1013.0
20260509153834 21 101 0.0 6.4 0.00 0.00 0.00 67 1013.1
20260509153334 21 117 0.0 6.4 0.00 0.00 0.00 67 1013.2
20260509152332 21 161 0.0 4.8 0.00 0.00 0.00 66 1013.3
20260509151832 21 172 0.0 3.2 0.00 0.00 0.00 66 1013.3
20260509151329 21 178 0.0 1.6 0.00 0.00 0.00 65 1013.3
20260509150831 21 298 0.0 1.6 0.00 0.00 0.00 64 1013.4
20260509145808 21 203 1.6 4.8 0.00 0.00 0.00 64 1013.5
20260509145312 21 337 1.6 6.4 0.00 0.00 0.00 63 1013.6
20260509143817 21 261 0.0 1.6 0.00 0.00 0.00 66 1013.8
20260509142813 20 271 0.0 4.8 0.00 0.00 0.00 67 1013.6
20260509142309 20 145 0.0 4.8 0.00 0.00 0.00 66 1013.5
20260509141803 20 92 0.0 1.6 0.00 0.00 0.00 68 1013.6
20260509141303 20 136 0.0 3.2 0.00 0.00 0.00 69 1013.6
20260509140803 20 136 0.0 4.8 0.00 0.00 0.00 69 1013.6
20260509135804 19 161 0.0 3.2 0.00 0.00 0.00 70 1013.6
20260509135305 19 119 0.0 3.2 0.00 0.00 0.00 71 1013.7
20260509134804 18 130 0.0 3.2 0.00 0.00 0.00 72 1013.7
20260509134302 18 107 0.0 3.2 0.00 0.00 0.00 71 1013.8
20260509133803 18 117 0.0 4.8 0.00 0.00 0.00 72 1013.7
20260509133306 18 99 0.0 4.8 0.00 0.00 0.00 73 1013.7
20260509132809 18 163 0.0 8.0 0.00 0.00 0.00 73 1013.9
20260509131804 18 143 0.0 3.2 0.00 0.00 0.00 75 1014.0
20260509131306 17 148 0.0 3.2 0.00 0.00 0.00 76 1013.9
20260509130806 17 147 0.0 3.2 0.00 0.00 0.00 77 1013.8
20260509130308 17 150 0.0 3.2 0.00 0.00 0.00 77 1014.0
20260509125804 17 165 0.0 3.2 0.00 0.00 0.00 78 1013.9
20260509125308 17 178 0.0 3.2 0.00 0.00 0.00 78 1014.0
20260509124805 16 194 0.0 3.2 0.00 0.00 0.00 78 1014.0
20260509124312 16 189 0.0 3.2 0.00 0.00 0.00 79 1014.0
20260509123303 16 192 0.0 1.6 0.00 0.00 0.00 79 1013.9
20260509122808 16 192 0.0 3.2 0.00 0.00 0.00 79 1013.9
20260509122305 16 192 0.0 3.2 0.00 0.00 0.00 79 1013.9
20260509121301 16 166 0.0 0.0 0.00 0.00 0.00 80 1014.0
20260509120304 16 155 0.0 4.8 0.00 0.00 0.00 80 1014.1
20260509115753 16 130 0.0 4.8 0.00 0.00 0.00 80 1014.1
20260509115251 15 199 0.0 1.6 0.00 0.00 0.00 81 1014.0
20260509114314 15 251 0.0 3.2 0.00 0.00 0.00 82 1014.1
20260509113243 15 237 0.0 3.2 0.00 0.00 0.00 82 1014.1
20260509112738 15 138 0.0 6.4 0.00 0.00 0.00 82 1014.1
20260509112238 15 136 0.0 6.4 0.00 0.00 0.00 82 1014.1
20260509111739 15 135 0.0 6.4 0.00 0.00 0.00 82 1014.1
20260509111238 15 104 0.0 11.3 0.00 0.00 0.00 82 1014.2
20260509105236 15 123 0.0 3.2 0.00 0.00 0.00 82 1014.3
20260509104732 15 107 0.0 4.8 0.00 0.00 0.00 82 1014.2
20260509104238 15 103 0.0 4.8 0.00 0.00 0.00 82 1014.2
20260509103732 14 215 0.0 3.2 0.00 0.00 0.00 82 1014.2
20260509102731 14 234 0.0 4.8 0.00 0.00 0.00 82 1014.2
20260509102234 14 200 0.0 3.2 0.00 0.00 0.00 82 1014.2
20260509101732 14 208 0.0 3.2 0.00 0.00 0.00 82 1014.2
20260509100725 14 150 0.0 3.2 0.00 0.00 0.00 82 1014.1
20260509095713 14 148 0.0 3.2 0.00 0.00 0.00 81 1014.1
20260509095204 14 145 0.0 3.2 0.00 0.00 0.00 81 1014.1
20260509094208 14 121 0.0 1.6 0.00 0.00 0.00 81 1014.0
20260509093705 14 123 0.0 1.6 0.00 0.00 0.00 80 1014.0
20260509093206 14 122 0.0 1.6 0.00 0.00 0.00 80 1013.9
20260509092712 14 122 0.0 1.6 0.00 0.00 0.00 80 1013.9
20260509091711 14 123 0.0 8.0 0.00 0.00 0.00 79 1013.9
20260509085704 14 168 0.0 3.2 0.00 0.00 0.00 79 1014.0
20260509085204 14 168 0.0 3.2 0.00 0.00 0.00 79 1014.0
20260509084706 14 198 0.0 3.2 0.00 0.00 0.00 79 1014.0
20260509083703 14 202 0.0 3.2 0.00 0.00 0.00 79 1014.0
20260509082159 14 200 0.0 3.2 0.00 0.00 0.00 78 1014.1
20260509081658 14 201 0.0 3.2 0.00 0.00 0.00 78 1014.1
20260509080652 14 197 0.0 1.6 0.00 0.00 0.00 77 1014.1
20260509080157 14 195 0.0 3.2 0.00 0.00 0.00 77 1014.2
20260509075652 14 195 0.0 3.2 0.00 0.00 0.00 77 1014.2
20260509075148 13 195 0.0 3.2 0.00 0.00 0.00 77 1014.3
20260509074705 13 195 0.0 3.2 0.00 0.00 0.00 76 1014.3
20260509074149 13 196 0.0 3.2 0.00 0.00 0.00 76 1014.4
20260509073649 13 192 0.0 3.2 0.00 0.00 0.00 76 1014.5
20260509072654 13 188 0.0 3.2 0.00 0.00 0.00 76 1014.5
20260509071649 13 184 0.0 3.2 0.00 0.00 0.00 75 1014.4
20260509071147 13 184 0.0 3.2 0.00 0.00 0.00 75 1014.3
20260509070645 13 184 0.0 3.2 0.00 0.00 0.00 75 1014.4
20260509070145 13 191 0.0 3.2 0.00 0.00 0.00 75 1014.4
20260509065646 13 191 0.0 3.2 0.00 0.00 0.00 75 1014.3
20260509065147 13 174 0.0 3.2 0.00 0.00 0.00 74 1014.3
20260509064647 13 174 0.0 4.8 0.00 0.00 0.00 74 1014.4
20260509064143 13 174 0.0 4.8 0.00 0.00 0.00 74 1014.5
20260509062642 13 141 0.0 1.6 0.00 0.00 0.00 73 1014.4
20260509062149 13 142 0.0 1.6 0.00 0.00 0.00 73 1014.5
20260509061144 13 136 0.0 1.6 0.00 0.00 0.00 72 1014.4
20260509060637 13 136 0.0 1.6 0.00 0.00 0.00 71 1014.4
20260509060144 13 136 0.0 1.6 0.00 0.00 0.00 71 1014.4
20260509055640 13 132 0.0 1.6 0.00 0.00 0.00 71 1014.5
20260509055145 13 132 0.0 1.6 0.00 0.00 0.00 71 1014.6
20260509054638 13 133 0.0 3.2 0.00 0.00 0.00 71 1014.5
20260509053640 13 133 0.0 1.6 0.00 0.00 0.00 70 1014.5
20260509052635 13 133 0.0 1.6 0.00 0.00 0.00 70 1014.5
20260509052133 13 133 0.0 4.8 0.00 0.00 0.00 70 1014.6
20260509051636 13 133 0.0 4.8 0.00 0.00 0.00 70 1014.6
20260509050133 13 240 0.0 3.2 0.00 0.00 0.00 70 1014.6
20260509045633 13 238 0.0 3.2 0.00 0.00 0.00 70 1014.8
20260509045134 13 247 0.0 3.2 0.00 0.00 0.00 70 1014.7
20260509044628 13 198 0.0 3.2 0.00 0.00 0.00 70 1014.7
20260509044131 13 198 0.0 4.8 0.00 0.00 0.00 69 1014.7
20260509043623 13 198 0.0 4.8 0.00 0.00 0.00 69 1014.9
20260509043124 13 190 0.0 1.6 0.00 0.00 0.00 69 1014.9
20260509042628 13 190 0.0 1.6 0.00 0.00 0.00 69 1015.0
20260509041617 13 190 0.0 3.2 0.00 0.00 0.00 68 1015.1
20260509041120 13 189 0.0 3.2 0.00 0.00 0.00 68 1015.1
20260509040115 13 201 0.0 4.8 0.00 0.00 0.00 68 1015.1
20260509035611 13 200 0.0 4.8 0.00 0.00 0.00 68 1015.0
20260509035113 13 203 0.0 3.2 0.00 0.00 0.00 68 1015.0
20260509034611 13 203 0.0 3.2 0.00 0.00 0.00 68 1015.1
20260509034110 13 197 0.0 3.2 0.00 0.00 0.00 68 1015.1
20260509033610 13 197 0.0 3.2 0.00 0.00 0.00 67 1015.2
20260509032605 13 202 0.0 3.2 0.00 0.00 0.00 68 1015.2
20260509032108 13 205 0.0 3.2 0.00 0.00 0.00 67 1015.2
20260509031605 13 207 0.0 3.2 0.00 0.00 0.00 67 1015.1
20260509031109 13 207 0.0 3.2 0.00 0.00 0.00 67 1014.9
20260509030603 13 206 0.0 1.6 0.00 0.00 0.00 67 1015.0
20260509030104 13 206 0.0 3.2 0.00 0.00 0.00 66 1014.8
20260509025609 13 206 0.0 3.2 0.00 0.00 0.00 66 1014.8
20260509025103 13 202 0.0 1.6 0.00 0.00 0.00 66 1014.8
20260509024609 13 202 0.0 4.8 0.00 0.00 0.00 66 1014.8
20260509024111 13 202 0.0 4.8 0.00 0.00 0.00 66 1014.9
20260509023601 13 202 0.0 0.0 0.00 0.00 0.00 65 1014.9
20260509023104 13 202 0.0 0.0 0.00 0.00 0.00 65 1014.9
20260509022110 13 202 0.0 1.6 0.00 0.00 0.00 66 1015.0
20260509021603 13 202 0.0 3.2 0.00 0.00 0.00 65 1015.1
20260509021105 13 202 0.0 3.2 0.00 0.00 0.00 66 1015.0
20260509020604 13 205 0.0 3.2 0.00 0.00 0.00 66 1014.9
20260509020105 13 205 0.0 3.2 0.00 0.00 0.00 66 1014.9
20260509015604 14 205 0.0 3.2 0.00 0.00 0.00 66 1014.9
20260509015105 14 205 0.0 3.2 0.00 0.00 0.00 66 1015.0
20260509014605 14 205 0.0 3.2 0.00 0.00 0.00 66 1015.0
20260509014106 14 203 0.0 1.6 0.00 0.00 0.00 66 1014.8
20260509013602 14 199 0.0 3.2 0.00 0.00 0.00 66 1015.0
20260509012549 14 198 0.0 4.8 0.00 0.00 0.00 66 1014.8
20260509012042 14 198 0.0 4.8 0.00 0.00 0.00 66 1014.8
20260509011549 15 186 0.0 4.8 0.00 0.00 0.00 67 1014.6
20260509011036 15 189 0.0 4.8 0.00 0.00 0.00 67 1014.5
20260509010535 15 189 0.0 4.8 0.00 0.00 0.00 67 1014.6
20260509010033 15 166 0.0 1.6 0.00 0.00 0.00 67 1014.5
20260509005534 15 167 0.0 3.2 0.00 0.00 0.00 67 1014.4
20260509004029 15 166 0.0 1.6 0.00 0.00 0.00 64 1014.3
20260509003533 15 166 0.0 4.8 0.00 0.00 0.00 64 1014.2
20260509002528 16 187 0.0 1.6 0.00 0.00 0.00 63 1014.3
20260509002027 16 187 0.0 1.6 0.00 0.00 0.00 62 1014.2
20260509001527 16 187 0.0 3.2 0.00 0.00 0.00 61 1014.2
20260509000528 16 187 0.0 3.2 0.00 0.00 0.00 60 1014.1
20260508235526 16 113 0.0 3.2 0.00 0.00 0.00 58 1013.9
20260508234527 17 112 0.0 3.2 0.00 0.00 0.00 56 1013.8
20260508234027 18 117 0.0 1.6 0.00 0.00 0.00 54 1013.9
20260508233528 18 117 0.0 4.8 0.00 0.00 0.00 50 1013.8
20260508233029 18 120 0.0 4.8 0.00 0.00 0.00 46 1013.7
20260508232525 18 141 1.6 4.8 0.00 0.00 0.00 47 1013.7
20260508231526 18 202 0.0 3.2 0.00 0.00 0.00 46 1013.4
20260508231022 18 144 0.0 4.8 0.00 0.00 0.00 47 1013.3
20260508230525 18 122 0.0 4.8 0.00 0.00 0.00 46 1013.3
20260508230021 18 123 0.0 3.2 0.00 0.00 0.00 48 1013.5
20260508225521 18 123 1.6 3.2 0.00 0.00 0.00 47 1013.5
20260508225021 18 222 0.0 6.4 0.00 0.00 0.00 47 1013.4
20260508224014 19 158 1.6 6.4 0.00 0.00 0.00 46 1013.6
20260508223517 19 170 1.6 6.4 0.00 0.00 0.00 45 1013.5
20260508223015 19 191 0.0 4.8 0.00 0.00 0.00 47 1013.4
20260508222513 19 150 1.6 4.8 0.00 0.00 0.00 47 1013.4
20260508222012 19 223 1.6 6.4 0.00 0.00 0.00 45 1013.5
20260508221511 19 51 0.0 6.4 0.00 0.00 0.00 44 1013.5
20260508221014 19 144 0.0 4.8 0.00 0.00 0.00 47 1013.3
20260508220509 19 140 1.6 6.4 0.00 0.00 0.00 46 1013.5
20260508220011 19 180 1.6 6.4 0.00 0.00 0.00 45 1013.3
20260508215006 19 211 1.6 6.4 0.00 0.00 0.00 46 1013.3
20260508214503 19 156 1.6 6.4 0.00 0.00 0.00 44 1013.3
20260508214005 19 145 1.6 8.0 0.00 0.00 0.00 43 1013.4
20260508212503 19 116 1.6 4.8 0.00 0.00 0.00 44 1013.5
20260508212005 19 175 1.6 4.8 0.00 0.00 0.00 44 1013.5
20260508211008 20 148 0.0 4.8 0.00 0.00 0.00 47 1013.5
20260508210500 19 135 1.6 9.7 0.00 0.00 0.00 46 1013.4
20260508205506 19 115 1.6 9.7 0.00 0.00 0.00 46 1013.5
20260508205000 20 105 1.6 6.4 0.00 0.00 0.00 44 1013.3
20260508204500 20 168 1.6 6.4 0.00 0.00 0.00 45 1013.6
20260508204000 20 153 1.6 9.7 0.00 0.00 0.00 45 1013.5
20260508203458 20 160 1.6 9.7 0.00 0.00 0.00 45 1013.5
20260508202459 20 163 1.6 9.7 0.00 0.00 0.00 44 1013.7
20260508201451 20 145 1.6 6.4 0.00 0.00 0.00 45 1013.6
20260508200943 20 137 1.6 6.4 0.00 0.00 0.00 44 1013.8
20260508200437 20 144 0.0 4.8 0.00 0.00 0.00 48 1013.6
20260508195935 20 107 1.6 4.8 0.00 0.00 0.00 47 1013.6
20260508194935 20 107 1.6 6.4 0.00 0.00 0.00 43 1013.6
20260508194431 19 165 1.6 6.4 0.00 0.00 0.00 47 1013.6
20260508193931 18 169 1.6 4.8 0.00 0.00 0.00 48 1013.6
20260508193433 18 19 1.6 4.8 0.00 0.00 0.00 55 1013.9
20260508192930 19 40 1.6 4.8 0.00 0.00 0.00 53 1013.8
20260508192433 20 103 1.6 3.2 0.00 0.00 0.00 52 1014.1
20260508191933 20 113 1.6 8.0 0.00 0.00 0.00 37 1014.1
20260508191432 20 94 1.6 9.7 0.00 0.00 0.00 38 1014.0
20260508190435 19 122 1.6 11.3 0.00 0.00 0.00 41 1014.2
20260508185932 19 159 1.6 11.3 0.00 0.00 0.00 40 1014.1
20260508185436 20 99 1.6 9.7 0.00 0.00 0.00 39 1014.3
20260508184431 19 144 1.6 8.0 0.00 0.00 0.00 43 1014.3
20260508183430 20 149 1.6 8.0 0.00 0.00 0.00 43 1014.3
20260508182428 19 149 0.0 4.8 0.00 0.00 0.00 45 1014.5
20260508181428 18 159 1.6 11.3 0.00 0.00 0.00 44 1014.5
20260508180924 18 136 1.6 8.0 0.00 0.00 0.00 45 1014.6
20260508180422 18 159 1.6 8.0 0.00 0.00 0.00 42 1014.7
20260508175422 18 167 1.6 9.7 0.00 0.00 0.00 46 1014.9
20260508174414 18 113 1.6 4.8 0.00 0.00 0.00 51 1014.8
20260508173912 17 336 0.0 3.2 0.00 0.00 0.00 60 1014.9
20260508173415 18 322 0.0 3.2 0.00 0.00 0.00 55 1014.9
20260508172915 17 320 1.6 3.2 0.00 0.00 0.00 49 1015.0